Погода Александровский Завод

Погода Александровский Завод : погода сейчас, прогноз погоды и архив. Всё, что Вы хотите узнать о погоде Александровский Завод!

Хотите узнать прогноз погоды Александровский Завод? Тогда Вам сюда: Погода Александровский Завод

Поиск расширенной информации на нашем сайте:

Другие новости

Новости СМИ2

Главная страница сайта

Новости сайта

03.07.2017

Напоминаем, что на нашем специализированном сайте Метеоцентр.Азия вы можете получить высокодетализированные автоматические прогнозы погоды по пунктам России, СНГ и мира в авиационном формате (включающие направление и скорость ветра, видимость, явления погоды, количество и форму облачности, нижнюю и верхнюю границу облачности).


Погода Александровский Завод - сегодня

Время (UTC), дата Ветер
(°,м/с) 
Видим.   Явления Облачность Т
(°С)
Тd
(°С)
f(%) Тe
(°С)
Pmin
(гПа)
dP
(гПа)
Po
(мм)
O2
(г/м3)
Тmin Tmax R s Состояние
почвы
18 21.11.17 220 (ЮЗ) 20000 м    ясно 
-21.3 -23.6 82 -22  1020.1  0.4  687  302           
21 21.11.17 220 (ЮЗ) 20000 м    ясно 
-25.4 -28.2 77 -29  1021.7  -0.2  687  307           
00 22.11.17 190 (Ю) 20000 м    6/0 средняя 
[Ac lent]
-20.8 -23 82 -24  1020.4  0.7  687  301  -25.4      равномерный
сухой снег
100% 
03 22.11.17 350 (С) 20000 м    4/3 600 м верхняя 
[Cu hum|Ci fib]
-14.5 -20.7 59 -18  1017.6  0.1  687  294           
06 22.11.17 310 (СЗ) 7-11{11}  20000 м    5/5 600 м 
[Sc diur, vesp]
-14.1 -23 47 -21  1016.6  -0.8  686  293           
09 22.11.17 350 (С) 3{11}  20000 м    3/0 средняя 
[Ac lent]
-17.4 -25.2 51 -21  1018.9  0.8  687  297           
12 22.11.17 260 (З) 20000 м    ясно 
-25.7 -29.3 72 -29  1022.7  0.2  687  307    -13.5       
15 22.11.17 180 (Ю) 20000 м    ясно 
-27.8 -30.8 76 -31  1024.1  0.3  687  310           
18 22.11.17 200 (Ю) 20000 м    ясно 
-30.9 -34.4 71 -35  1026.2  0.6  688  314           
21 22.11.17 200 (Ю) 20000 м    ясно 
-31.5 -35 71 -32  1026.6  0.2  688  315           
00 23.11.17 220 (ЮЗ) 20000 м    8/0 верхняя 
[Cs]
-28.8 -32.1 73 -29  1026.6  1.1  689  312  -31.8      равномерный
сухой снег
100% 
03 23.11.17 тихо ()   20000 м    9/0 верхняя 
[Cs]
-18.2 -24.9 56 -18  1023  690  299           
06 23.11.17 030 (СВ) 20000 м    9/0 верхняя 
[Ci fib]
-15.7 -23.7 50 -16  1021.6  -0.3  689  296           
09 23.11.17 040 (СВ) 20000 м    8/0 верхняя 
[Ci fib]
-21.4 -26.4 64 -24  1025.3  1.1  690  303           
12 23.11.17 220 (ЮЗ) 20000 м    3/0 верхняя 
[Ci fib]
-27.9 -31.2 73 -31  1029.1  0.8  691  312    -15.6       
15 23.11.17 тихо ()   20000 м    ясно 
-31.4 -35.1 70 -31  1029.9  -0.7  690  316           
18 23.11.17 220 (ЮЗ) 20000 м    ясно 
-31.2 -34.6 72 -37  1029.2  -0.6  690  316           
21 23.11.17 220 (ЮЗ) 20000 м    ясно 
-31.8 -35.4 70 -36  1028.3  -1  689  316           
00 24.11.17 200 (Ю) 20000 м    3/0 верхняя 
[Ci fib]
-32.9 -36.6 70 -37  1028.4  -0.4  689  317  -32.9      равномерный
сухой снег
100% 
03 24.11.17 тихо ()   20000 м    10/0 верхняя 
[Ci fib]
-18.3 -24.1 60 -18  1021.4  -0.3  689  299           
06 24.11.17 030 (СВ) 20000 м    8/0 верхняя 
[Ci fib]
-15.7 -24.4 47 -18  1018.7  -1.5  687  295           
09 24.11.17 010 (С) 20000 м    ясно 
-20.1 -26.2 58 -23  1021  0.4  688  301           
12 24.11.17 190 (Ю) 20000 м    ясно 
-31.3 -34.8 71 -35  1027  0.8  688  315    -15.3       
15 24.11.17 220 (ЮЗ) 20000 м    ясно 
-32.8 -36.5 69 -37  1027.1  -0.5  688  317           
18 24.11.17 220 (ЮЗ) 20000 м    ясно 
-34.5 -38.3 68 -39  1027.3  -0.6  687  319           
Время (UTC), дата Ветер
(°,м/с) 
Видим.   Явления Облачность Т
(°С)
Тd
(°С)
f(%) Тe
(°С)
Pmin
(гПа)
dP
(гПа)
Po
(мм)
O2
(г/м3)
Тmin Tmax R s Состояние
почвы

Для получения пояснительной информации подведите курсор к названию столбца.

ПОГОДА Александровский Завод - архив

Всё, что Вы хотите узнать о погоде Александровский Завод - удобно и подробно!

Выберите нужную дату (начиная с 1 января 2015* года) и нажмите кнопку "Найти".
Будут отображены архивные сводки погоды по пункту Александровский Завод, начиная с указанной даты.


Отображать данные в формате CSV (для использования в таблицах Excel)


Внимание! Наш архив погоды предназначен исключительно для личного некоммерческого использования в познавательных целях. Если Вам необходимы официальные справки о состоянии погоды (для производственных, юридических, коммерческих и т.п. целей), обращайтесь в органы Росгидромета.

*Примечание: данная дата относится к архиву по метеостанциям СССР (Россия, СНГ, Балтия).
Архив по метеостанциям Зарубежной Европы и Азии (кроме Китая) хранится 10 дней, по другим регионам земного шара (Китай, Африка, Америка, Австралия, Океания) - 1 день.

Александровский Завод - район местоположения метеостанции


Название, широта, долгота, высота метеостанции:
Александровский Завод 50.9°ш. 117.9°д. 807 м над ур. моря [Российская Федерация]

Дополнительная информация

В oтличие oт бoльшинства пoгoдных сайтoв мы публикуем пoдрoбную метеoинфoрмацию в детальнoм прoфессиoнальнoм фoрмате.

Характеристики температуры и влажнoсти вoздуха измеряются на высoте 2 м в тени вдали oт зданий и деревьев.
Скoрoсть ветра измеряется на высoте 10 м (на урoвне рoста челoвека скoрoсть ветра ниже в 1.5-2 раза). Если метеoстанция нахoдится в гoрoде или в лесу, тo скoрoсть ветра занижена на 2-4 м/с пo сравнению с oткрытым местoм. Скoрoсть ветра над акватoриями крупных рек и oзёр, а также на вершинах хoлмoв на 2-5 м/с выше, чем в oбычных услoвиях.
Атмoсфернoе давление в разных тoчках местнoсти мoжет значительнo oтличаться oт давления на метеoстанции, в зависимoсти oт услoвий рельефа (при пoдъёме на 10 м давление пoнижается примернo на 1 мм рт.ст.).